Tracking 28348 objects as of 8-Dec-2023
HD Live streaming from Space Station
objects crossing your sky now

STARLINK-30434

Track STARLINK-30434 now!
10-day predictions
STARLINK-30434 is classified as:


NORAD ID: 57875
Int'l Code: 2023-144M
Perigee: 565.4 km
Apogee: 567.0 km
Inclination: 43.0 °
Period: 95.8 minutes
Semi major axis: 6937 km
RCS: Unknown
Launch date: September 16, 2023
Source: United States (US)
Launch site: AIR FORCE EASTERN TEST RANGE (AFETR)
Your satellite tracking list
Your tracking list is empty




NASA's NSSDC Master Catalog

Two Line Element Set (TLE):
1 57875U 23144M   23341.72036661 -.00000561  00000-0 -26417-4 0  9998
2 57875  43.0031  79.3472 0001201 274.4611  85.6094 15.02546907 13821
Source of the keplerian elements: AFSPC